ARIANE 42P DEB, 44511

Orbit data source: Space-Track

ARIANE 42P DEB, 44511 is space debris in LEO originally from a launch on Mon, 10 Aug 1992 UTC launched from the French Guiana (FRGUI). Debris objects in space refer to the collection of defunct objects orbiting the Earth. Examples of debris include non-operational satellites, rocket bodies, and fragments generated from explosions, collisions, or faulty payload assembly.

Loading next visibility...
Identifier
44511, 1992-052J
Orbit
LEO
Country
Flag of FRFR
Related business
Manufacturer
ArianeGroup
Mission
Spacecraft
Bus & Motor
Unknown
Mass
Unknown
Launch date (UTC)
1992-08-10 (33 years ago)
Launch vehicle
Unknown
Launch site
French Guiana (FRGUI)
Object type
Payload
Rocket body
Debris
Shape & HBR
Unknown
Radar Cross Section
Small (<0.1 m²)

Expand to show TLE details & history
Last TLE update: 1 day ago

TLE from 1 day ago
0 ARIANE 42P DEB
1 44511U 92052J   25259.84573361  .00001691  00000-0  71812-2 0  9991
2 44511  66.0651 130.1509 0054907  75.3531 285.3565 12.84584486285109
Epoch: 2025-09-16T20:17Z
TLE epoch observation values (Epoch: 2025-09-16T20:17:51.383Z)
Latitude
-0.00005°
Longitude
-170.3434°
Altitude
1,314.025 km
Speed
7.205 km/s
True Right ascension
08h 40m 36s
True Declination
0° 00' 00"
Sunlit
Object was in daylight at epoch
Visualization orbit readout
Latitude
Unknown
Longitude
Unknown
Altitude
Unknown
Speed
Unknown
Apparent Right ascension
Unknown
Apparent Declination
Unknown
Sunlit
N/A
Visualization observer readout
Local Sidereal Time
15:41:14
Azimuth
Unknown
Elevation
Unknown
Doppler factor
Unknown
Orbital elements
Apogee altitude
1,363.927 km
Perigee altitude
1,279.373 km
Semi-major axis
7,699.787 km
Eccentricity
0.00549
Inclination
66.0651°
RAAN
130.1509°
Arg. of periapsis
75.3531°
True anomaly
284.74868°
Mean anomaly
285.3565°
Eccentric anomaly
285.0527°
Mean motion
3.21237 °/min
Orbital period
112.07 mins
BSTAR
0.0071812
Loading maneuver chart data...
Computing Atmospheric mass density...
Loading historical data...
Loading historical data...
Loading historical data...
Loading historical data...
Loading historical data...
Loading historical data...
Loading historical data...

Documentation

Showing up to 5 results
|